Temp
2 2 1 1 1 1 1 1 1 1 2 1 1 2 2 3 3 3 2 2 2 1 2 2 3 4 4 4 4 5 5 5 6 7 7 7 7 8 8 9 9 9 9 8 9 9 9 8 10 10 8 6 6 5
1 1 1 1 1 1 1 1 1 1 1 1 2 2 2 3 3 3 3 2 2 1 2 2 3 4 4 5 4 3 5 4 5 5 5 6 7 7 7 9 9 9 8 8 9 8 7 6 6 5 5 4 3 4
1 1 1 1 1 1 1 1 1 1 1 1 1 2 3 3 3 3 3 2 1 2 2 1 3 5 4 4 5 4 3 4 5 5 4 5 7 6 7 7 8 7 6 7 7 5 4 5 3 3 2 1 0 1
1 1 1 1 1 1 1 1 1 1 1 1 1 1 2 3 4 4 3 2 2 2 2 3 4 4 5 4 4 4 5 4 5 5 5 5 5 6 7 7 7 5 6 4 6 4 4 3 2 2 1 1 -0 -1
1 1 1 1 1 1 1 1 1 1 1 1 1 2 3 4 4 4 3 2 2 4 3 3 3 4 5 5 4 4 4 4 4 5 5 6 5 6 6 6 5 4 3 4 4 2 3 2 1 0 -0 -1 -2 -1
1 0 1 1 1 1 1 1 1 1 0 0 1 2 3 4 4 4 1 2 3 3 3 3 4 4 3 3 2 3 3 4 4 5 6 6 6 6 6 5 3 3 2 1 2 2 1 -0 -0 -1 -1 -2 -2 -3
0 0 1 0 1 1 1 1 1 1 0 1 2 2 3 3 4 3 3 4 2 3 2 3 4 3 3 2 2 2 3 4 5 5 4 5 6 5 4 4 2 1 0 -0 -0 1 1 -1 -2 -1 -1 -2 -3 -4
-0 0 0 0 0 0 1 1 0 1 1 1 2 2 3 3 3 3 3 3 2 2 3 3 2 3 3 3 3 2 3 3 4 5 4 5 4 4 4 1 0 -0 -0 -1 -1 -1 -2 -3 -2 -3 -3 -2 -2 -3
-0 -0 0 0 0 0 0 0 0 1 1 1 2 2 2 3 3 3 3 3 2 2 4 3 2 3 4 4 4 3 3 3 3 4 5 5 4 4 1 0 -1 -2 -2 -2 -1 -1 -2 -2 -3 -4 -4 -4 -4 -5
-0 -0 -0 -0 0 0 0 0 0 1 1 2 1 2 1 1 3 3 2 2 2 2 2 3 1 4 5 5 4 4 2 4 5 5 3 4 1 -2 -2 -2 -2 -3 -3 -2 -0 -2 -2 -3 -4 -5 -5 -6 -6 -7
-0 -0 -0 -0 0 0 0 0 1 1 1 1 0 1 2 3 3 2 2 3 3 3 3 2 3 4 4 4 4 4 4 5 5 5 5 3 2 -1 -3 -3 -3 -4 -4 -4 -4 -4 -4 -4 -5 -6 -7 -8 -8 -9
-0 0 0 0 0 0 0 1 1 1 1 1 2 2 2 2 2 3 3 3 3 4 3 3 3 4 3 4 4 4 5 5 5 4 3 1 -2 -3 -3 -4 -4 -5 -5 -5 -5 -5 -6 -6 -7 -8 -9 -10 -11 -11
-0 -0 0 0 0 1 0 1 1 2 2 3 3 2 2 1 3 4 3 2 3 2 3 4 4 3 3 3 4 4 4 5 2 3 3 -1 -3 -3 -4 -5 -5 -6 -6 -7 -7 -8 -8 -9 -9 -9 -10 -11 -12 -13
-0 0 0 0 0 0 0 2 3 3 3 2 2 2 2 1 1 -0 2 1 1 2 3 4 4 4 3 3 4 5 4 3 4 3 2 -2 -3 -4 -5 -5 -6 -8 -10 -10 -10 -11 -11 -12 -13 -13 -12 -12 -13 -14
-1 -0 -0 0 1 2 3 3 2 3 0 0 0 -1 -3 -2 -3 1 2 3 2 4 3 3 2 3 2 3 1 2 3 4 3 3 -3 -4 -5 -6 -7 -8 -9 -10 -12 -12 -12 -13 -13 -12 -13 -13 -13 -12 -13 -13
0 0 2 3 3 2 2 1 2 2 -1 -2 -3 -2 -2 0 1 1 2 2 1 2 2 2 2 3 2 2 2 3 4 4 0 -5 -5 -5 -7 -8 -8 -9 -11 -12 -12 -12 -12 -12 -12 -12 -12 -13 -12 -12 -12 -12
2 1 3 2 2 2 3 3 1 -1 -2 -3 -4 -5 -6 -3 -1 -1 -1 -0 -1 3 1 1 2 3 1 -0 1 -2 1 -3 -6 -6 -7 -7 -8 -10 -11 -11 -11 -11 -12 -12 -12 -12 -12 -12 -12 -13 -12 -13 -13 -13
1 2 3 3 2 3 2 1 -1 -1 -3 -3 -3 -4 -6 -4 -2 -3 -3 -2 0 1 1 1 1 0 1 3 -0 -5 -7 -9 -8 -7 -8 -10 -11 -11 -10 -11 -11 -11 -11 -11 -11 -12 -12 -12 -12 -12 -12 -13 -13 -13
1 1 1 2 4 3 0 -1 -1 -3 -3 -4 -4 -4 -4 -4 -4 -4 -3 -2 -2 -2 -2 -2 -2 -1 -2 -6 -7 -9 -7 -6 -7 -8 -11 -12 -10 -10 -10 -10 -10 -11 -10 -11 -11 -11 -11 -11 -11 -11 -11 -12 -12 -12
0 2 3 4 4 1 -0 -1 -1 -1 -2 -2 -2 -2 -3 -3 -4 -5 -4 -3 -3 -3 -3 -4 -5 -7 -7 -8 -9 -6 -9 -8 -7 -8 -9 -10 -11 -10 -10 -10 -10 -10 -10 -10 -10 -10 -11 -11 -11 -11 -11 -11 -11 -12
0 1 3 3 2 1 -1 -1 -2 -2 -2 -2 -2 -2 -3 -4 -4 -4 -4 -4 -5 -7 -6 -9 -7 -9 -12 -12 -8 -8 -7 -6 -7 -7 -7 -8 -11 -10 -10 -9 -9 -10 -10 -10 -10 -11 -11 -11 -12 -12 -12 -12 -13 -13
1 1 3 3 -0 -1 -2 -2 -1 -2 -2 -1 -2 -2 -3 -4 -5 -6 -5 -6 -7 -8 -9 -7 -8 -8 -8 -8 -9 -8 -8 -7 -9 -9 -8 -9 -9 -9 -10 -10 -10 -10 -11 -11 -11 -11 -12 -12 -13 -13 -13 -13 -14 -14
3 3 1 -1 -3 -4 -3 -2 -2 -1 -2 -2 -2 -3 -5 -6 -5 -4 -6 -6 -8 -9 -9 -9 -9 -9 -9 -9 -8 -8 -7 -8 -9 -10 -10 -10 -10 -9 -9 -10 -10 -11 -12 -12 -11 -12 -12 -13 -13 -13 -13 -14 -14 -14
2 -3 -4 -5 -3 -3 -5 -5 -1 -2 -2 -3 -4 -5 -5 -6 -5 -6 -7 -8 -8 -8 -7 -7 -7 -7 -7 -8 -8 -9 -9 -9 -11 -11 -10 -10 -10 -12 -11 -11 -10 -10 -11 -11 -12 -12 -12 -13 -13 -14 -14 -14 -14 -14
-1 -5 -5 -7 -6 -5 -7 -7 -6 -4 -7 -7 -6 -7 -6 -5 -7 -8 -7 -8 -8 -8 -8 -7 -7 -7 -8 -10 -10 -10 -9 -9 -10 -11 -11 -9 -11 -12 -12 -12 -12 -11 -11 -12 -12 -12 -13 -13 -13 -14 -14 -14 -14 -15
-6 -7 -5 -6 -8 -5 -6 -6 -8 -8 -8 -8 -8 -8 -8 -7 -8 -7 -6 -9 -9 -9 -10 -8 -8 -8 -9 -9 -10 -10 -9 -8 -8 -11 -12 -10 -10 -11 -12 -12 -13 -13 -12 -12 -13 -13 -13 -14 -14 -14 -14 -14 -15 -15
-8 -8 -5 -5 -5 -4 -7 -7 -6 -8 -9 -8 -8 -9 -9 -8 -9 -9 -9 -11 -9 -9 -8 -8 -7 -8 -9 -11 -10 -10 -10 -9 -8 -10 -11 -11 -11 -11 -11 -12 -13 -13 -13 -13 -14 -14 -14 -14 -15 -15 -15 -15 -15 -15
-8 -8 -5 -11 -11 -9 -12 -12 -12 -11 -9 -7 -8 -12 -10 -10 -9 -10 -10 -11 -10 -8 -8 -8 -7 -7 -8 -9 -10 -10 -11 -11 -11 -12 -12 -13 -13 -13 -13 -13 -14 -14 -14 -15 -15 -15 -15 -15 -15 -16 -16 -16 -16 -16
-11 -11 -10 -13 -12 -12 -11 -13 -11 -9 -9 -10 -12 -12 -11 -11 -12 -13 -11 -11 -10 -8 -11 -12 -12 -10 -11 -11 -11 -11 -11 -11 -12 -14 -14 -14 -15 -15 -14 -15 -15 -15 -15 -15 -16 -16 -16 -16 -16 -16 -17 -17 -17 -17
-11 -11 -13 -16 -14 -12 -13 -13 -12 -14 -12 -12 -11 -11 -11 -12 -13 -12 -11 -11 -10 -11 -10 -10 -11 -11 -13 -13 -14 -14 -13 -12 -11 -11 -13 -14 -13 -14 -14 -15 -15 -16 -16 -16 -16 -16 -17 -17 -17 -17 -17 -17 -17 -18
-12 -13 -14 -14 -13 -14 -14 -16 -16 -16 -17 -16 -19 -15 -13 -13 -13 -13 -12 -11 -11 -11 -11 -13 -13 -12 -12 -13 -13 -14 -14 -12 -12 -12 -12 -12 -13 -14 -15 -16 -16 -16 -16 -17 -17 -17 -17 -17 -18 -18 -18 -18 -18 -19
-16 -18 -14 -14 -13 -14 -16 -18 -19 -17 -16 -14 -14 -18 -17 -14 -13 -14 -14 -13 -12 -13 -12 -11 -12 -12 -12 -12 -11 -11 -11 -12 -12 -13 -13 -14 -15 -15 -16 -16 -17 -17 -17 -17 -17 -18 -18 -18 -18 -18 -18 -19 -19 -19
-19 -20 -19 -16 -14 -14 -16 -15 -15 -14 -16 -15 -15 -19 -20 -16 -13 -14 -14 -13 -12 -12 -12 -11 -11 -12 -12 -12 -12 -13 -13 -13 -14 -15 -15 -16 -16 -16 -17 -17 -17 -17 -17 -17 -17 -18 -18 -18 -18 -18 -19 -19 -19 -19
Height
738 741 745 749 753 756 757 761 765 767 769 772 773 775 777 779 781 782 784 787 791 794 789 787 786 786 785 786 784 777 774 770 767 761 759 759 755 752 748 743 741 740 743 749 745 746 746 746 735 738 754 758 756 754
732 736 739 744 747 751 754 757 760 763 765 767 769 771 773 774 776 778 781 783 787 790 787 785 783 781 781 782 784 784 781 782 779 775 772 767 762 761 760 746 747 747 755 754 752 751 757 756 759 765 762 765 765 762
727 731 734 738 742 746 749 752 756 758 760 762 764 766 768 769 771 774 775 779 785 787 784 782 774 772 774 776 780 784 782 781 780 780 779 774 764 764 763 759 754 760 764 759 758 768 771 768 771 772 774 775 776 774
721 725 729 733 736 740 744 747 750 753 755 757 759 761 762 763 765 768 768 774 779 784 784 774 770 769 768 769 774 778 779 780 780 779 776 772 774 769 763 763 764 772 769 775 765 771 772 778 779 780 781 782 781 783
715 719 724 727 731 735 739 742 745 748 751 753 755 756 756 759 761 763 765 768 771 778 779 774 768 767 766 767 770 775 778 780 780 777 775 773 775 771 767 769 773 778 781 776 774 782 780 785 786 787 787 788 787 786
709 713 718 722 726 730 733 736 740 743 746 748 750 751 752 755 758 760 767 768 770 774 777 776 768 766 766 767 770 774 777 780 779 776 772 770 769 770 766 770 782 784 787 788 786 787 788 791 791 792 792 793 792 791
704 708 712 716 720 724 728 731 735 738 741 744 746 747 748 752 755 758 761 760 764 771 775 773 767 767 768 770 773 775 777 777 776 777 776 771 770 772 773 772 786 789 792 792 792 789 789 795 797 797 795 796 797 796
698 702 707 711 715 718 722 726 729 733 737 740 743 745 747 750 754 756 758 759 764 769 772 771 771 767 767 769 772 774 776 778 776 776 775 771 773 774 774 788 791 793 794 796 794 793 796 799 800 799 799 798 797 797
692 696 701 704 708 712 716 720 724 728 733 737 740 743 745 746 748 751 757 761 763 770 766 768 772 768 766 767 769 773 774 778 777 772 772 770 772 771 783 787 794 797 797 798 797 796 797 799 802 802 802 801 801 801
686 690 694 698 702 706 710 714 718 723 728 734 739 739 740 741 746 751 757 761 764 764 765 764 770 761 763 764 768 771 774 770 768 768 772 770 779 791 793 795 797 799 800 798 794 798 798 801 803 805 805 806 806 807
680 684 688 692 696 699 703 707 712 718 724 726 728 731 734 739 744 750 752 753 755 757 756 759 760 758 762 763 765 767 767 764 765 761 763 770 772 788 795 798 800 801 802 803 803 804 804 805 805 808 809 810 811 812
674 678 681 685 689 692 696 700 704 710 711 713 718 726 734 734 737 740 742 747 746 740 746 750 754 756 759 760 761 766 761 764 756 762 765 772 786 792 796 799 802 803 804 805 807 807 808 810 810 811 813 815 817 817
668 671 674 678 681 685 687 689 691 697 700 706 714 722 724 728 727 727 735 738 736 739 740 742 747 753 759 759 757 759 759 755 764 762 761 781 789 794 798 801 804 805 807 808 810 811 812 813 815 816 818 820 819 819
662 664 667 669 673 676 678 680 685 691 698 706 709 718 716 724 726 726 720 726 727 728 731 736 743 747 753 756 754 750 757 760 758 763 763 784 791 796 799 802 804 808 809 811 813 815 816 818 820 822 822 822 822 822
654 655 657 660 663 668 673 679 685 691 699 704 708 721 730 728 728 720 719 720 724 725 730 737 746 748 753 753 760 762 760 753 754 754 781 788 793 797 802 805 809 811 813 815 816 818 819 820 821 822 823 824 824 824
644 647 647 654 660 668 676 683 689 692 701 711 720 723 724 721 721 723 721 723 726 728 732 737 745 748 752 754 753 750 749 747 761 781 786 791 796 801 804 807 809 812 814 816 818 820 821 822 823 824 824 825 825 825
641 645 650 657 665 674 679 682 689 701 711 719 730 730 731 726 725 727 727 729 730 728 737 740 746 744 754 760 759 767 755 770 782 786 790 794 798 803 806 809 812 814 817 819 821 823 824 825 826 827 827 828 828 828
647 652 656 663 670 676 680 686 694 706 720 726 726 730 733 731 729 732 733 733 731 732 736 739 743 750 748 742 756 774 782 787 788 790 794 798 801 804 807 810 813 816 818 821 823 824 826 827 827 828 828 828 829 829
652 659 664 669 672 676 688 698 702 717 726 729 731 732 735 737 739 738 736 735 734 735 739 748 751 751 757 768 772 778 780 780 787 795 800 803 804 807 809 812 815 817 819 821 823 824 825 826 826 826 826 827 828 828
659 664 667 670 672 680 695 707 708 716 725 729 730 733 737 739 741 742 740 737 738 742 750 758 762 768 767 769 771 772 780 784 788 795 803 806 807 809 811 813 815 817 819 821 822 823 824 825 825 825 825 825 825 825
665 670 671 671 677 686 701 710 717 722 726 730 732 735 740 742 744 744 745 746 750 762 765 770 767 770 771 772 773 777 782 785 789 792 797 804 809 811 813 814 816 817 819 821 822 823 824 824 824 824 824 824 824 824
669 672 674 676 686 697 707 712 715 721 726 730 732 735 742 746 750 751 751 753 763 767 768 767 770 772 773 776 779 782 786 789 792 796 800 804 809 812 813 814 816 818 819 820 821 822 823 823 824 824 824 824 824 825
670 673 678 685 698 708 719 715 717 720 729 733 735 740 748 751 751 751 760 764 768 769 769 770 772 774 777 781 784 787 790 792 796 799 802 806 809 811 813 814 816 817 819 820 821 822 823 823 823 824 824 824 824 825
673 681 692 700 703 715 720 723 717 723 730 735 739 748 749 752 753 758 763 768 769 769 770 772 774 778 783 785 789 791 793 795 799 803 805 807 810 813 814 815 816 817 819 820 821 822 822 822 823 823 823 823 823 824
681 702 701 715 713 718 729 734 732 730 745 748 748 753 752 750 758 765 761 766 768 769 772 774 776 778 781 788 791 793 796 797 799 803 807 808 810 813 816 817 817 818 819 820 820 821 821 821 822 822 822 822 822 822
707 714 712 716 723 717 727 732 740 742 744 751 754 753 753 755 761 760 759 765 768 770 772 774 776 781 786 787 790 795 797 798 800 803 807 809 811 813 815 816 818 819 819 819 819 819 820 820 820 820 820 820 820 820
721 727 717 719 717 717 729 732 731 738 749 750 751 756 758 762 767 766 765 766 767 768 772 775 777 780 785 789 793 796 798 800 801 804 807 809 811 813 814 815 815 817 817 818 818 818 818 818 818 818 819 819 818 818
723 724 720 735 735 733 746 751 755 757 752 746 748 768 767 768 766 767 766 766 766 769 774 778 780 782 786 790 794 797 799 801 804 806 809 811 813 813 814 814 815 816 817 818 818 817 817 817 817 817 818 817 817 817
733 732 732 747 744 747 751 757 755 751 753 752 762 770 769 768 770 769 767 767 769 771 776 780 784 787 789 793 797 799 801 803 805 809 811 813 814 815 815 816 816 817 817 818 818 818 818 818 818 817 817 816 816 815
737 735 744 758 759 759 761 759 757 758 756 757 758 763 768 771 771 769 769 771 772 774 778 781 785 788 791 794 798 802 804 805 805 807 809 810 811 813 815 816 816 817 817 818 818 818 818 818 817 816 816 815 815 814
739 742 751 757 762 762 760 760 759 759 761 763 765 768 771 773 774 774 774 775 776 777 780 785 788 791 792 795 797 800 804 805 806 807 808 809 810 813 814 815 816 817 817 817 817 817 817 816 816 815 815 814 813 812
749 758 755 761 763 761 761 764 768 769 768 768 771 775 775 775 779 779 780 780 780 781 783 785 788 792 795 797 799 800 801 803 806 807 809 810 812 813 814 815 816 816 816 816 816 816 816 815 815 814 813 812 811 810
759 761 762 761 762 765 765 765 770 771 774 776 776 781 783 781 781 783 782 782 783 784 786 789 791 794 797 799 800 802 804 806 808 809 811 812 813 814 815 815 815 815 815 815 815 815 814 814 813 812 811 810 808 807
Wind_Speed
20 20 19 17 16 18 15 15 16 14 13 15 13 13 14 12 11 19 9 23 11 3 3 6 4 4 2 1 3 4 3 3 4 6 3 3 3 3 3 3 3 3 2 1 1 2 2 12 5 5 1 7 9 11
19 17 20 18 16 18 16 16 17 15 15 16 16 15 16 15 12 20 7 24 20 3 3 4 11 19 15 6 2 2 0 2 3 3 3 3 2 3 5 2 5 3 4 2 3 4 6 11 11 10 10 8 9 8
21 20 20 19 17 18 18 17 17 15 15 17 14 16 18 18 17 18 13 22 9 1 4 2 8 16 19 23 20 1 1 2 1 1 1 2 2 3 3 2 3 2 8 2 2 7 11 11 11 11 11 12 11 12
23 21 19 19 18 19 18 18 17 15 16 17 16 18 19 18 19 17 20 25 17 3 2 4 4 8 5 14 19 20 3 1 1 1 1 2 1 3 2 3 2 2 6 5 1 5 2 12 11 10 11 10 11 12
23 24 22 21 19 20 20 19 17 15 17 16 17 16 14 16 14 16 24 28 25 3 2 3 8 2 5 8 18 15 10 1 1 2 1 1 1 2 1 1 2 3 3 2 3 6 5 6 9 10 10 10 11 10
18 20 23 19 18 18 19 18 17 16 18 17 14 14 13 14 11 13 1 18 28 12 0 2 2 2 5 6 11 10 6 2 2 1 1 1 2 1 2 1 3 4 5 6 2 3 9 9 10 9 9 9 10 11
19 21 23 21 19 18 19 18 18 17 18 17 13 11 11 14 13 4 2 2 31 17 2 2 2 0 6 5 2 2 2 1 1 1 2 2 0 1 1 2 5 5 6 6 7 1 6 11 6 8 8 9 11 13
20 22 21 21 21 21 23 21 17 17 19 17 14 11 10 10 15 9 5 9 23 7 2 2 3 1 5 2 2 1 2 1 1 2 2 2 2 1 2 5 5 4 7 7 7 8 8 8 8 9 9 7 8 9
20 22 21 22 21 20 22 20 17 19 20 18 13 10 7 8 6 7 13 16 21 3 2 2 3 3 2 2 3 1 1 2 1 3 3 2 2 3 3 8 5 5 3 3 3 7 7 8 8 8 8 8 8 8
22 22 23 22 22 22 21 19 19 20 19 16 10 7 2 10 20 26 4 2 2 3 3 4 1 2 2 2 2 3 1 2 3 4 2 3 1 4 6 7 6 5 6 6 5 4 4 6 6 8 9 8 8 7
22 22 21 22 22 22 21 21 22 21 18 7 4 3 7 34 8 2 3 4 4 4 5 4 6 4 2 3 2 2 2 2 2 3 5 2 2 4 7 7 6 7 8 8 8 7 7 6 6 6 7 9 9 9
21 21 22 23 23 23 23 24 26 24 12 18 14 11 11 3 3 5 4 4 4 6 5 5 6 3 2 2 2 3 3 3 4 3 2 2 2 9 8 7 7 7 8 9 9 9 9 10 9 10 10 9 9 9
21 22 22 23 24 24 24 25 30 21 34 17 4 4 3 2 4 7 8 4 5 5 6 6 6 3 2 3 2 3 5 3 2 1 2 0 7 7 7 7 7 8 9 10 10 10 10 12 11 10 10 9 9 10
21 22 23 25 22 26 26 20 30 30 10 2 4 6 3 3 4 3 4 4 3 4 9 9 4 3 3 3 1 3 2 2 2 2 3 5 8 8 6 6 6 5 8 10 10 11 12 12 12 13 12 11 13 13
19 22 25 27 25 19 27 38 25 12 4 2 2 3 3 1 1 1 1 3 2 8 6 5 3 2 1 2 1 3 2 3 3 2 3 6 9 8 7 7 7 7 7 8 8 10 12 12 13 12 10 10 10 9
22 21 14 31 40 37 30 22 9 3 4 3 5 3 1 2 3 2 3 3 2 3 3 3 3 2 2 2 3 5 4 4 3 2 4 8 7 6 7 6 8 10 9 9 9 9 8 8 8 8 8 8 8 8
15 5 39 43 42 29 12 6 4 4 3 4 2 1 2 2 3 2 2 1 2 2 2 3 4 4 3 2 2 3 2 1 4 6 5 6 7 7 8 11 12 12 11 10 9 8 8 8 7 5 4 4 5 5
18 33 38 36 29 16 5 7 4 4 5 3 3 2 2 2 3 3 2 2 1 2 2 2 3 2 4 5 2 3 2 3 4 6 5 5 9 13 13 12 13 12 11 10 9 9 8 7 4 2 4 5 4 3
32 31 28 18 7 7 3 4 4 4 3 2 2 2 3 3 4 2 2 3 3 4 4 2 3 2 2 1 2 4 6 5 6 4 4 8 14 14 13 12 12 10 10 9 8 6 5 3 3 4 4 6 6 5
31 23 14 9 5 5 4 3 4 4 2 1 2 2 3 2 1 2 3 4 3 2 4 3 1 1 1 2 2 7 5 7 8 7 5 3 7 11 11 11 9 9 7 5 4 3 3 2 1 1 2 2 5 6
20 14 8 5 6 10 4 2 3 2 3 3 2 2 2 2 2 3 3 3 3 2 1 1 1 1 2 5 12 16 13 13 6 4 6 6 6 9 8 7 8 8 5 5 5 4 3 1 1 1 2 2 2 3
9 6 3 7 5 4 3 5 4 3 3 3 2 2 2 2 2 2 1 4 2 0 1 2 4 6 7 7 9 15 18 16 12 15 15 16 5 5 4 7 7 6 5 4 4 4 2 1 2 2 1 2 3 4
8 4 5 5 5 4 1 1 3 2 3 3 2 3 2 2 1 1 3 2 1 0 2 3 6 12 15 16 19 17 15 18 12 13 14 13 11 9 9 7 5 6 5 5 5 4 2 2 2 2 1 1 2 3
5 5 4 3 4 3 2 3 2 3 3 2 2 3 1 2 1 2 2 0 0 2 4 10 14 9 12 11 5 8 12 17 15 14 14 14 9 6 7 8 7 6 4 6 5 3 2 1 1 1 2 3 4 4
6 7 4 5 3 4 4 3 3 3 2 1 3 1 2 2 2 1 3 3 3 4 5 8 8 7 6 4 8 9 14 18 15 11 8 10 13 10 7 6 5 4 3 4 3 3 3 3 3 3 3 3 4 4
7 4 4 1 2 4 3 3 2 4 3 2 1 1 1 2 2 2 2 4 3 3 4 7 6 6 4 7 6 7 11 15 18 11 8 9 9 7 6 5 3 2 1 1 3 4 5 5 5 5 4 4 5 5
4 3 2 3 1 3 3 3 3 3 3 3 2 2 2 3 2 1 0 2 2 7 18 16 15 12 10 13 15 13 15 12 8 10 10 8 5 4 4 4 5 3 3 1 2 3 3 4 6 5 4 4 4 5
2 3 3 3 4 3 4 3 3 2 1 1 2 3 4 4 2 1 1 1 11 21 17 13 14 21 23 20 19 19 19 18 18 16 15 12 9 8 7 6 6 5 3 3 3 4 3 2 1 1 2 4 5 5
3 2 3 5 4 5 4 2 1 1 2 1 3 2 2 2 2 2 2 10 21 25 20 19 18 20 21 20 17 14 19 18 14 4 3 2 2 3 6 6 6 4 3 3 2 3 4 4 3 3 3 5 5 6
2 2 4 3 4 3 2 0 0 1 2 2 2 2 2 3 7 5 8 14 16 17 20 23 24 23 21 20 18 15 14 7 6 5 4 3 4 9 8 6 4 3 2 2 0 1 2 3 4 4 4 4 4 5
2 3 4 3 2 1 2 1 1 2 2 3 2 3 2 1 5 13 10 9 16 20 22 20 16 18 20 19 18 14 7 5 3 4 4 6 10 10 8 5 2 1 1 0 1 1 2 3 3 3 4 6 7 8
3 3 4 3 0 1 2 2 1 2 3 3 2 2 2 3 3 4 5 5 11 14 16 20 20 15 12 13 10 7 6 11 10 11 10 10 10 8 6 4 3 2 2 2 1 1 3 4 5 6 7 8 10 10
2 2 3 3 2 2 2 3 4 2 3 2 2 1 1 2 3 0 3 3 6 12 17 15 16 17 15 11 11 14 15 14 13 12 10 9 8 7 5 3 2 2 2 2 2 3 4 6 7 8 9 10 10 11
Wind_Direction
230 224 223 217 239 242 228 230 242 242 249 252 257 257 255 259 234 205 198 199 178 193 266 205 210 212 270 104 323 314 354 11 346 19 1 6 3 17 313 20 3 41 28 72 132 240 300 359 18 33 26 40 38 46
226 227 224 220 230 239 238 234 241 238 249 250 243 250 255 257 249 210 191 200 201 174 267 257 247 251 242 221 177 325 105 19 9 358 4 309 359 4 359 44 2 59 19 332 354 359 28 49 65 38 53 62 26 54
222 227 230 220 228 235 233 230 241 237 251 254 250 245 256 253 252 223 188 172 162 238 270 252 243 267 244 232 232 215 291 168 246 193 292 303 353 345 17 2 339 77 20 27 341 46 31 39 53 51 49 55 46 39
223 221 226 222 225 233 229 226 238 239 252 245 250 251 262 254 235 227 175 182 171 142 261 275 282 270 267 219 215 211 206 209 189 310 360 349 321 6 343 334 25 358 342 337 341 26 118 45 44 55 52 56 63 53
231 220 223 222 226 227 229 233 228 244 248 251 258 270 267 235 215 211 200 191 185 173 206 281 304 303 230 208 198 197 205 203 319 290 220 253 259 295 181 106 59 18 11 360 48 347 81 47 47 53 57 51 51 57
229 224 219 223 227 227 230 231 227 246 247 253 260 271 262 210 199 173 81 195 202 191 214 289 308 46 63 161 166 171 167 180 222 241 270 250 235 207 279 131 91 84 74 28 33 47 91 77 46 62 64 61 59 64
228 226 220 218 221 227 232 235 229 244 245 246 257 262 250 197 191 165 190 174 196 174 163 266 291 72 117 118 86 105 144 192 172 290 256 264 138 336 268 212 120 85 79 53 29 298 89 48 54 38 74 79 74 71
232 221 220 221 223 233 230 239 230 244 235 242 257 246 240 218 204 189 188 117 154 105 217 218 266 310 176 127 109 140 118 129 211 242 254 212 143 236 227 120 96 51 112 54 49 60 88 95 72 58 54 63 64 67
231 218 225 220 233 226 231 228 234 228 222 242 242 244 238 220 177 167 164 163 172 165 205 173 188 221 142 105 110 129 132 160 248 227 223 221 195 225 121 139 108 63 76 354 91 91 85 75 64 56 56 52 66 64
224 221 220 227 227 234 230 237 228 228 236 230 231 198 194 170 131 129 127 123 155 181 198 206 135 163 180 147 110 133 168 197 207 219 121 215 190 109 98 98 100 80 53 21 165 69 71 78 69 56 56 54 57 60
223 219 225 226 232 234 240 234 236 233 229 211 171 165 139 146 125 143 173 173 157 183 184 178 184 155 205 159 145 216 168 193 239 188 197 194 230 158 124 100 88 82 78 72 79 81 71 65 74 83 73 69 69 71
219 226 230 230 237 242 240 246 235 225 211 167 132 122 152 184 147 157 157 154 207 196 161 160 171 165 155 172 119 174 200 195 246 131 168 246 100 136 132 113 90 82 87 84 85 87 84 81 81 86 85 83 82 83
227 231 234 237 240 248 244 236 263 209 136 113 119 136 191 151 150 174 174 198 184 158 170 161 152 135 132 212 164 166 203 231 107 170 230 100 142 136 128 117 98 92 93 91 84 87 87 82 83 91 97 96 93 86
231 238 240 243 239 240 245 226 154 139 121 120 163 148 201 163 227 187 160 153 196 139 154 151 116 139 161 159 179 186 148 161 176 231 220 154 152 132 127 123 114 88 83 87 85 92 96 100 94 94 98 106 104 96
240 247 246 248 237 221 161 141 129 113 130 104 83 138 171 222 189 130 149 110 61 140 134 103 81 118 98 133 192 121 136 231 234 223 145 147 143 135 125 124 124 116 107 98 103 101 101 103 99 92 88 87 87 90
250 236 203 153 142 129 127 132 136 106 66 77 48 89 119 138 99 110 98 104 30 129 88 71 115 125 177 159 156 202 173 221 183 164 139 134 130 127 129 126 123 125 122 119 112 109 107 102 96 93 86 75 69 63
112 89 138 132 139 140 133 100 84 63 91 60 48 71 110 78 94 82 50 55 340 97 130 122 139 178 112 110 201 206 207 141 140 128 125 127 138 137 128 126 132 133 132 135 137 141 138 136 127 123 114 106 97 87
118 131 140 135 122 121 61 42 73 70 73 45 78 10 46 15 63 46 13 351 35 108 123 137 125 147 188 175 210 171 123 106 92 123 124 123 127 135 138 137 144 146 148 153 154 152 155 161 170 183 172 168 156 142
134 125 126 140 134 101 81 45 49 86 77 102 112 86 73 80 37 22 8 41 75 81 105 62 97 173 196 166 143 140 140 142 133 116 100 119 136 139 140 143 146 149 152 155 164 174 183 210 280 278 235 215 235 215
125 117 106 106 90 90 83 47 62 77 92 101 64 64 79 77 91 21 22 24 48 48 47 46 125 201 189 182 165 134 125 126 125 119 117 116 137 146 154 158 162 161 157 164 175 189 165 154 57 30 8 275 261 236
111 116 94 71 62 66 86 99 65 99 117 79 112 70 75 36 39 32 34 353 64 50 106 181 118 50 95 122 116 123 127 136 132 137 146 143 156 152 147 153 161 161 155 166 166 168 202 220 194 16 32 29 37 147
123 124 88 56 78 66 73 23 112 128 79 119 104 83 83 68 38 26 17 49 59 79 147 130 125 123 113 107 109 125 130 128 120 120 128 130 133 139 155 168 159 158 148 162 168 165 158 182 187 141 89 79 114 129
115 72 59 56 74 56 115 348 82 82 107 134 96 85 54 78 78 116 77 75 119 208 143 102 101 109 108 113 115 121 131 127 116 119 126 124 123 127 130 140 158 159 155 160 153 140 120 109 167 172 163 163 191 208
94 59 65 75 81 110 57 35 80 91 91 102 101 108 141 144 106 55 95 104 230 123 110 123 123 113 108 105 108 115 124 132 121 116 128 128 121 109 124 124 123 123 138 162 163 157 148 151 198 226 259 267 280 277
75 353 65 27 11 82 71 42 30 69 99 145 95 98 182 131 97 106 164 164 156 140 137 133 126 132 128 117 117 118 153 150 134 123 132 143 129 121 117 124 128 136 160 178 194 218 236 236 258 259 281 285 291 300
70 339 54 46 337 99 167 106 155 152 121 92 132 70 63 107 95 179 178 168 153 158 157 148 139 119 111 135 131 142 156 153 141 122 140 162 156 161 171 170 170 169 160 219 250 248 254 257 259 252 270 295 295 297
74 347 26 35 344 86 65 45 68 87 85 127 165 106 84 107 202 249 101 188 144 166 168 156 145 133 139 128 130 137 143 144 138 133 132 141 172 202 212 207 210 198 183 239 295 296 288 262 248 246 265 295 307 297
123 31 109 336 55 21 109 68 57 75 131 353 98 66 124 165 175 321 319 340 146 150 143 141 144 150 146 144 144 137 126 124 120 117 111 101 97 99 104 115 123 129 120 93 72 56 47 48 78 250 281 298 306 305
42 346 79 41 43 43 40 76 108 42 351 62 106 123 146 65 340 301 31 136 148 144 125 118 118 136 135 139 144 147 143 140 132 118 108 128 157 144 129 124 122 118 119 111 76 48 40 31 31 10 342 325 314 314
2 21 87 60 67 43 289 42 33 321 25 68 84 96 67 40 15 56 128 145 143 139 147 150 150 152 146 145 140 144 148 128 106 129 151 181 204 165 154 142 129 119 120 133 172 316 327 323 326 327 332 335 335 324
15 67 73 62 94 250 235 323 348 84 44 47 14 88 103 101 67 49 77 130 146 143 144 146 152 160 156 158 156 150 151 171 149 146 141 137 140 148 152 154 159 159 166 225 307 329 351 350 354 353 344 336 331 325
33 75 119 106 166 283 37 58 54 68 7 46 24 45 25 59 62 19 32 130 155 153 162 162 156 160 155 145 141 141 147 146 134 127 127 131 136 139 140 135 122 98 90 97 95 339 336 335 330 326 323 322 322 322
67 62 58 91 62 356 309 84 27 52 34 54 38 81 92 119 130 144 56 105 169 164 153 148 142 139 138 136 134 131 132 130 130 130 130 128 127 125 119 109 89 67 46 33 357 335 330 328 325 323 322 323 325 324